Year,Month,Day,Hour,Minute,Value (Times are PST for temperature in C)
2019,03,19,09,13,11.60
2019,03,19,09,14,11.60
2019,03,19,09,15,11.60
2019,03,19,09,16,11.70
2019,03,19,09,17,11.70
2019,03,19,09,18,11.70
2019,03,19,09,19,11.70
2019,03,19,09,20,11.70
2019,03,19,09,21,11.80
2019,03,19,09,22,11.80
2019,03,19,09,23,11.80
2019,03,19,09,24,11.80
2019,03,19,09,25,11.90
2019,03,19,09,26,11.90
2019,03,19,09,27,12.00
2019,03,19,09,28,12.00
2019,03,19,09,29,12.10
2019,03,19,09,30,12.10
2019,03,19,09,31,12.20
2019,03,19,09,32,12.20
2019,03,19,09,33,12.30
2019,03,19,09,34,12.30
2019,03,19,09,35,12.30
2019,03,19,09,36,12.40
2019,03,19,09,37,12.40
2019,03,19,09,38,12.50
2019,03,19,09,39,12.50
2019,03,19,09,40,12.50
2019,03,19,09,41,12.60
2019,03,19,09,42,12.60
2019,03,19,09,43,12.60
2019,03,19,09,44,12.60
2019,03,19,09,45,12.60
2019,03,19,09,46,12.60
2019,03,19,09,47,12.60
2019,03,19,09,48,12.60
2019,03,19,09,49,12.60
2019,03,19,09,50,12.60
2019,03,19,09,51,12.60
2019,03,19,09,52,12.50
2019,03,19,09,53,12.50
2019,03,19,09,54,12.50
2019,03,19,09,55,12.50
2019,03,19,09,56,12.60
2019,03,19,09,57,12.60
2019,03,19,09,58,12.60
2019,03,19,09,59,12.70
2019,03,19,10,00,12.70
2019,03,19,10,01,12.70
2019,03,19,10,02,12.80
2019,03,19,10,03,12.80
2019,03,19,10,04,12.80
2019,03,19,10,05,12.80
2019,03,19,10,06,12.90
2019,03,19,10,07,12.90
2019,03,19,10,08,13.00
2019,03,19,10,09,13.00
2019,03,19,10,10,13.10
2019,03,19,10,11,13.10
2019,03,19,10,12,13.20
2019,03,19,10,13,13.20
2019,03,19,10,14,13.30
2019,03,19,10,15,13.30
2019,03,19,10,16,13.30
2019,03,19,10,17,13.40
2019,03,19,10,18,13.50
2019,03,19,10,19,13.50
2019,03,19,10,20,13.60
2019,03,19,10,21,13.60
2019,03,19,10,22,13.70
2019,03,19,10,23,13.70
2019,03,19,10,24,13.70
2019,03,19,10,25,13.70
2019,03,19,10,26,13.70
2019,03,19,10,27,13.70
2019,03,19,10,28,13.70
2019,03,19,10,29,13.70
2019,03,19,10,30,13.70
2019,03,19,10,31,13.70
2019,03,19,10,32,13.70
2019,03,19,10,33,13.70
2019,03,19,10,34,13.70
2019,03,19,10,35,13.70
2019,03,19,10,36,13.70
2019,03,19,10,37,13.70
2019,03,19,10,38,13.70
2019,03,19,10,39,13.80
2019,03,19,10,40,13.80
2019,03,19,10,41,13.80
2019,03,19,10,42,13.90
2019,03,19,10,43,14.00
2019,03,19,10,44,14.00
2019,03,19,10,45,14.10
2019,03,19,10,46,14.20
2019,03,19,10,47,14.20
2019,03,19,10,48,14.30
2019,03,19,10,49,14.40
2019,03,19,10,50,14.50
2019,03,19,10,51,14.50
2019,03,19,10,52,14.50
2019,03,19,10,53,14.50
2019,03,19,10,54,14.50
2019,03,19,10,55,14.50
2019,03,19,10,56,14.50
2019,03,19,10,57,14.50
2019,03,19,10,58,14.50
2019,03,19,10,59,14.50
2019,03,19,11,00,14.50
2019,03,19,11,01,14.50
2019,03,19,11,02,14.50
2019,03,19,11,03,14.60
2019,03,19,11,04,14.60
2019,03,19,11,05,14.70
2019,03,19,11,06,14.80
2019,03,19,11,07,14.80
2019,03,19,11,08,14.70
2019,03,19,11,09,14.70
2019,03,19,11,10,14.70
2019,03,19,11,11,14.80
2019,03,19,11,12,14.80
2019,03,19,11,13,14.80
2019,03,19,11,14,14.90
2019,03,19,11,15,15.00
2019,03,19,11,16,15.00
2019,03,19,11,17,15.00
2019,03,19,11,18,15.00
2019,03,19,11,19,15.00
2019,03,19,11,20,15.00
2019,03,19,11,21,14.90
2019,03,19,11,22,14.90
2019,03,19,11,23,14.80
2019,03,19,11,24,14.80
2019,03,19,11,25,14.80
2019,03,19,11,26,14.80
2019,03,19,11,27,14.80
2019,03,19,11,28,14.90
2019,03,19,11,29,14.90
2019,03,19,11,30,14.90
2019,03,19,11,31,15.00
2019,03,19,11,32,15.00
2019,03,19,11,33,15.00
2019,03,19,11,34,15.10
2019,03,19,11,35,15.10
2019,03,19,11,36,15.10
2019,03,19,11,37,15.10
2019,03,19,11,38,15.10
2019,03,19,11,39,15.20
2019,03,19,11,40,15.10
2019,03,19,11,41,15.10
2019,03,19,11,42,15.20
2019,03,19,11,43,15.30
2019,03,19,11,44,15.30
2019,03,19,11,45,15.30
2019,03,19,11,46,15.30
2019,03,19,11,47,15.30
2019,03,19,11,48,15.20
2019,03,19,11,49,15.10
2019,03,19,11,50,15.10
2019,03,19,11,51,15.10
2019,03,19,11,52,15.10
2019,03,19,11,53,15.00
2019,03,19,11,54,15.00
2019,03,19,11,55,14.90
2019,03,19,11,56,14.80
2019,03,19,11,57,14.80
2019,03,19,11,58,14.90
2019,03,19,11,59,14.90
2019,03,19,12,00,14.90
2019,03,19,12,01,15.00
2019,03,19,12,02,15.00
2019,03,19,12,03,15.00
2019,03,19,12,04,15.10
2019,03,19,12,05,15.10
2019,03,19,12,06,15.20
2019,03,19,12,07,15.20
2019,03,19,12,08,15.30
2019,03,19,12,09,15.30
2019,03,19,12,10,15.30
2019,03,19,12,11,15.30
2019,03,19,12,12,15.30
2019,03,19,12,13,15.40
2019,03,19,12,14,15.50
2019,03,19,12,15,15.60
2019,03,19,12,16,15.70
2019,03,19,12,17,15.70
2019,03,19,12,18,15.80
2019,03,19,12,19,15.80
2019,03,19,12,20,15.80
2019,03,19,12,21,15.80
2019,03,19,12,22,15.80
2019,03,19,12,23,15.80
2019,03,19,12,24,15.90
2019,03,19,12,25,15.90
2019,03,19,12,26,15.90
2019,03,19,12,27,16.00
2019,03,19,12,28,16.10
2019,03,19,12,29,16.20
2019,03,19,12,30,16.30
2019,03,19,12,31,16.40
2019,03,19,12,32,16.40
2019,03,19,12,33,16.40
2019,03,19,12,34,16.40
2019,03,19,12,35,16.40
2019,03,19,12,36,16.30
2019,03,19,12,37,16.20
2019,03,19,12,38,16.20
2019,03,19,12,39,16.10
2019,03,19,12,40,16.10
2019,03,19,12,41,16.20
2019,03,19,12,42,16.30
2019,03,19,12,43,16.30
2019,03,19,12,44,16.40
2019,03,19,12,45,16.40
2019,03,19,12,46,16.40
2019,03,19,12,47,16.40
2019,03,19,12,48,16.40
2019,03,19,12,49,16.50
2019,03,19,12,50,16.60
2019,03,19,12,51,16.70
2019,03,19,12,52,16.70
2019,03,19,12,53,16.80
2019,03,19,12,54,16.80
2019,03,19,12,55,16.90
2019,03,19,12,56,16.90
2019,03,19,12,57,16.80
2019,03,19,12,58,16.80
2019,03,19,12,59,16.90
2019,03,19,13,00,16.90
2019,03,19,13,01,16.90
2019,03,19,13,02,16.90
2019,03,19,13,03,16.80
2019,03,19,13,04,16.90
2019,03,19,13,05,16.90
2019,03,19,13,06,17.00
2019,03,19,13,07,17.00
2019,03,19,13,08,17.00
2019,03,19,13,09,17.00
2019,03,19,13,10,17.10
2019,03,19,13,11,17.10
2019,03,19,13,12,17.00
2019,03,19,13,13,17.00
2019,03,19,13,14,17.10
2019,03,19,13,15,17.10
2019,03,19,13,16,17.20
2019,03,19,13,17,17.20
2019,03,19,13,18,17.20
2019,03,19,13,19,17.20
2019,03,19,13,20,17.20
2019,03,19,13,21,17.30
2019,03,19,13,22,17.30
2019,03,19,13,23,17.30
2019,03,19,13,24,17.40
2019,03,19,13,25,17.40
2019,03,19,13,26,17.40
2019,03,19,13,27,17.50
2019,03,19,13,28,17.50
2019,03,19,13,29,17.50
2019,03,19,13,30,17.60
2019,03,19,13,31,17.70
2019,03,19,13,32,17.70
2019,03,19,13,33,17.70
2019,03,19,13,34,17.70
2019,03,19,13,35,17.80
2019,03,19,13,36,17.80
2019,03,19,13,37,17.80
2019,03,19,13,38,17.80
2019,03,19,13,39,17.80
2019,03,19,13,40,17.80
2019,03,19,13,41,17.90
2019,03,19,13,42,17.90
2019,03,19,13,43,17.90
2019,03,19,13,44,17.90
2019,03,19,13,45,17.90
2019,03,19,13,46,18.00
2019,03,19,13,47,18.10
2019,03,19,13,48,18.20
2019,03,19,13,49,18.20
2019,03,19,13,50,18.10
2019,03,19,13,51,18.10
2019,03,19,13,52,18.20
2019,03,19,13,53,18.20
2019,03,19,13,54,18.10
2019,03,19,13,55,18.00
2019,03,19,13,56,17.90
2019,03,19,13,57,17.90
2019,03,19,13,58,17.90
2019,03,19,13,59,17.90
2019,03,19,14,00,18.00
2019,03,19,14,01,18.10
2019,03,19,14,02,18.10
2019,03,19,14,03,18.20
2019,03,19,14,04,18.20
2019,03,19,14,05,18.20
2019,03,19,14,06,18.20
2019,03,19,14,07,18.20
2019,03,19,14,08,18.30
2019,03,19,14,09,18.40
2019,03,19,14,10,18.40
2019,03,19,14,11,18.50
2019,03,19,14,12,18.50
2019,03,19,14,13,18.50
2019,03,19,14,14,18.60
2019,03,19,14,15,18.50
2019,03,19,14,16,18.50
2019,03,19,14,17,18.50
2019,03,19,14,18,18.50
2019,03,19,14,19,18.60
2019,03,19,14,20,18.60
2019,03,19,14,21,18.60
2019,03,19,14,22,18.50
2019,03,19,14,23,18.50
2019,03,19,14,24,18.40
2019,03,19,14,25,18.40
2019,03,19,14,26,18.50
2019,03,19,14,27,18.50
2019,03,19,14,28,18.60
2019,03,19,14,29,18.70
2019,03,19,14,30,18.90
2019,03,19,14,31,19.00
2019,03,19,14,32,19.10
2019,03,19,14,33,19.10
2019,03,19,14,34,19.10
2019,03,19,14,35,19.10
2019,03,19,14,36,19.20
2019,03,19,14,37,19.30
2019,03,19,14,38,19.30
2019,03,19,14,39,19.40
2019,03,19,14,40,19.50
2019,03,19,14,41,19.50
2019,03,19,14,42,19.60
2019,03,19,14,43,19.60
2019,03,19,14,44,19.70
2019,03,19,14,45,19.80
2019,03,19,14,46,19.90
2019,03,19,14,47,19.90
2019,03,19,14,48,19.90
2019,03,19,14,49,19.90
2019,03,19,14,50,19.90
2019,03,19,14,51,19.90
2019,03,19,14,52,19.90
2019,03,19,14,53,19.90
2019,03,19,14,54,19.90
2019,03,19,14,55,19.90
2019,03,19,14,56,19.90
2019,03,19,14,57,19.90
2019,03,19,14,58,19.90
2019,03,19,14,59,19.90
2019,03,19,15,00,19.90
2019,03,19,15,01,19.90
2019,03,19,15,02,19.90
2019,03,19,15,03,19.90
2019,03,19,15,04,19.90
2019,03,19,15,05,19.80
2019,03,19,15,06,19.80
2019,03,19,15,07,19.90
2019,03,19,15,08,19.90
2019,03,19,15,09,19.90
2019,03,19,15,10,19.90
2019,03,19,15,11,20.00
2019,03,19,15,12,20.10
2019,03,19,15,13,20.20
2019,03,19,15,14,20.20
2019,03,19,15,15,20.30
2019,03,19,15,16,20.30
2019,03,19,15,17,20.40
2019,03,19,15,18,20.40
2019,03,19,15,19,20.50
2019,03,19,15,20,20.40
2019,03,19,15,21,20.50
2019,03,19,15,22,20.50
2019,03,19,15,23,20.50
2019,03,19,15,24,20.50
2019,03,19,15,25,20.50
2019,03,19,15,26,20.50
2019,03,19,15,27,20.50
2019,03,19,15,28,20.50
2019,03,19,15,29,20.50
2019,03,19,15,30,20.60
2019,03,19,15,31,20.60
2019,03,19,15,32,20.60
2019,03,19,15,33,20.60
2019,03,19,15,34,20.60
2019,03,19,15,35,20.60
2019,03,19,15,36,20.60
2019,03,19,15,37,20.50
2019,03,19,15,38,20.40
2019,03,19,15,39,20.40
2019,03,19,15,40,20.30
2019,03,19,15,41,20.30
2019,03,19,15,42,20.30
2019,03,19,15,43,20.30
2019,03,19,15,44,20.30
2019,03,19,15,45,20.30
2019,03,19,15,46,20.20
2019,03,19,15,47,20.20
2019,03,19,15,48,20.20
2019,03,19,15,49,20.20
2019,03,19,15,50,20.20
2019,03,19,15,51,20.20
2019,03,19,15,52,20.20
2019,03,19,15,53,20.20
2019,03,19,15,54,20.20
2019,03,19,15,55,20.20
2019,03,19,15,56,20.10
2019,03,19,15,57,20.10
2019,03,19,15,58,20.00
2019,03,19,15,59,19.90
2019,03,19,16,00,19.90
2019,03,19,16,01,19.90
2019,03,19,16,02,19.90
2019,03,19,16,03,19.90
2019,03,19,16,04,20.00
2019,03,19,16,05,20.10
2019,03,19,16,06,20.10
2019,03,19,16,07,20.00
2019,03,19,16,08,19.90
2019,03,19,16,09,19.90
2019,03,19,16,10,19.90
2019,03,19,16,11,19.80
2019,03,19,16,12,19.80
2019,03,19,16,13,19.80
2019,03,19,16,14,19.90
2019,03,19,16,15,19.90
2019,03,19,16,16,19.90
2019,03,19,16,17,19.90
2019,03,19,16,18,19.90
2019,03,19,16,19,19.90
2019,03,19,16,20,19.90
2019,03,19,16,21,19.90
2019,03,19,16,22,19.90
2019,03,19,16,23,19.90
2019,03,19,16,24,19.90
2019,03,19,16,25,19.90
2019,03,19,16,26,20.00
2019,03,19,16,27,20.10
2019,03,19,16,28,20.10
2019,03,19,16,29,20.10
2019,03,19,16,30,20.10
2019,03,19,16,31,20.20
2019,03,19,16,32,20.20
2019,03,19,16,33,20.20
2019,03,19,16,34,20.20
2019,03,19,16,35,20.10
2019,03,19,16,36,20.10
2019,03,19,16,37,20.10
2019,03,19,16,38,20.10
2019,03,19,16,39,20.10
2019,03,19,16,40,20.20
2019,03,19,16,41,20.20
2019,03,19,16,42,20.20
2019,03,19,16,43,20.20
2019,03,19,16,44,20.20
2019,03,19,16,45,20.20
2019,03,19,16,46,20.20
2019,03,19,16,47,20.20
2019,03,19,16,48,20.10
2019,03,19,16,49,20.10
2019,03,19,16,50,20.10
2019,03,19,16,51,20.10
2019,03,19,16,52,20.10
2019,03,19,16,53,20.00
2019,03,19,16,54,19.90
2019,03,19,16,55,19.90
2019,03,19,16,56,19.90
2019,03,19,16,57,19.90
2019,03,19,16,58,19.90
2019,03,19,16,59,19.90
2019,03,19,17,00,19.90
2019,03,19,17,01,19.90
2019,03,19,17,02,19.90
2019,03,19,17,03,19.90
2019,03,19,17,04,19.90
2019,03,19,17,05,20.00
2019,03,19,17,06,20.10
2019,03,19,17,07,20.10
2019,03,19,17,08,20.10
2019,03,19,17,09,20.10
2019,03,19,17,10,20.10
2019,03,19,17,11,20.10
2019,03,19,17,12,20.00
2019,03,19,17,13,19.90
2019,03,19,17,14,19.90
2019,03,19,17,15,19.90
2019,03,19,17,16,19.90
2019,03,19,17,17,19.90
2019,03,19,17,18,19.90
2019,03,19,17,19,19.90
2019,03,19,17,20,19.90
2019,03,19,17,21,19.90
2019,03,19,17,22,19.90
2019,03,19,17,23,19.90
2019,03,19,17,24,19.90
2019,03,19,17,25,19.90
2019,03,19,17,26,19.90
2019,03,19,17,27,19.90
2019,03,19,17,28,19.90
2019,03,19,17,29,19.90
2019,03,19,17,30,19.90
2019,03,19,17,31,19.90
2019,03,19,17,32,19.90
2019,03,19,17,33,19.90
2019,03,19,17,34,19.90
2019,03,19,17,35,19.90
2019,03,19,17,36,19.90
2019,03,19,17,37,19.80
2019,03,19,17,38,19.80
2019,03,19,17,39,19.80
2019,03,19,17,40,19.70
2019,03,19,17,41,19.60
2019,03,19,17,42,19.60
2019,03,19,17,43,19.50
2019,03,19,17,44,19.50
2019,03,19,17,45,19.40
2019,03,19,17,46,19.30
2019,03,19,17,47,19.30
2019,03,19,17,48,19.20
2019,03,19,17,49,19.10
2019,03,19,17,50,19.10
2019,03,19,17,51,19.10
2019,03,19,17,52,19.00
2019,03,19,17,53,18.90
2019,03,19,17,54,18.90
2019,03,19,17,55,18.90
2019,03,19,17,56,18.90
2019,03,19,17,57,18.90
2019,03,19,17,58,18.90
2019,03,19,17,59,18.90
2019,03,19,18,00,18.90
2019,03,19,18,01,18.90
2019,03,19,18,02,18.90
2019,03,19,18,03,18.90
2019,03,19,18,04,18.90
2019,03,19,18,05,18.90
2019,03,19,18,06,18.90
2019,03,19,18,07,18.90
2019,03,19,18,08,18.90
2019,03,19,18,09,18.90
2019,03,19,18,10,18.90
2019,03,19,18,11,18.90
2019,03,19,18,12,18.90
2019,03,19,18,13,18.90
2019,03,19,18,14,18.90
2019,03,19,18,15,18.90
2019,03,19,18,16,18.80
2019,03,19,18,17,18.80
2019,03,19,18,18,18.80
2019,03,19,18,19,18.90
2019,03,19,18,20,18.90
2019,03,19,18,21,18.90
2019,03,19,18,22,18.80
2019,03,19,18,23,18.80
2019,03,19,18,24,18.80
2019,03,19,18,25,18.70
2019,03,19,18,26,18.70
2019,03,19,18,27,18.60
2019,03,19,18,28,18.50
2019,03,19,18,29,18.50
2019,03,19,18,30,18.40
2019,03,19,18,31,18.30
2019,03,19,18,32,18.30
2019,03,19,18,33,18.20
2019,03,19,18,34,18.20
2019,03,19,18,35,18.10
2019,03,19,18,36,18.10
2019,03,19,18,37,18.10
2019,03,19,18,38,18.10
2019,03,19,18,39,18.00
2019,03,19,18,40,17.90
2019,03,19,18,41,17.90
2019,03,19,18,42,17.90
2019,03,19,18,43,17.90
2019,03,19,18,44,17.90
2019,03,19,18,45,17.90
2019,03,19,18,46,17.90
2019,03,19,18,47,17.90
2019,03,19,18,48,17.80
2019,03,19,18,49,17.80
2019,03,19,18,50,17.80
2019,03,19,18,51,17.70
2019,03,19,18,52,17.70
2019,03,19,18,53,17.70
2019,03,19,18,54,17.70
2019,03,19,18,55,17.70
2019,03,19,18,56,17.70
2019,03,19,18,57,17.70
2019,03,19,18,58,17.70
2019,03,19,18,59,17.70
2019,03,19,19,00,17.70
2019,03,19,19,01,17.70
2019,03,19,19,02,17.70
2019,03,19,19,03,17.70
